Weather History for Stanley, ND

Change the Weather History Date:

Tuesday, July 16, 2013

  Actual Average (KMOT) Record (KMOT)
Temperature  
Mean Temperature 62 °F 70 °F  
Max Temperature 66 °F 82 °F 105 °F (1936)
Min Temperature 59 °F 58 °F 37 °F (1918)
Degree Days  
Heating Degree Days 2    
Cooling Degree Days 0 6  
Month to date cooling degree days 78  
Year to date cooling degree days 167  
Since 1 June cooling degree days 151  
Growing Degree Days 12 (Base 50)    
Moisture  
Dew Point 61 °F    
Average Humidity 95    
Maximum Humidity 100    
Minimum Humidity 82    
Precipitation  
Precipitation 0.32 in 0.08 in 0.65 in (1993)
Month to date precipitation 1.43  
Year to date precipitation 10.40  
Sea Level Pressure  
Sea Level Pressure 30.14 in    
Wind  
Wind Speed 9 mph (NNE)    
Max Wind Speed 22 mph    
Max Gust Speed 41 mph    
Visibility 10 miles    
Events Rain , Thunderstorm    
T = Trace of Precipitation, MM = Missing Value Source: NWS Daily Summary

Daily Weather History Graph

Daily Weather History Graph

Search for Another Location

Airport:

Trip Planner

Search our weather history database for the weather conditions in past years. The results will help you decide how hot, cold, wet, or windy it might be!

Date:

Astronomy

Jul. 16, 2013 Rise Set
Actual Time 6:05 AM CDT 9:44 PM CDT
Civil Twilight 5:26 AM CDT 10:24 PM CDT
Nautical Twilight 4:33 AM CDT 11:17 PM CDT
Astronomical Twilight 3:17 AM CDT 12:31 AM CDT
Moon 3:17 PM CDT (7/16) 12:51 AM CDT (7/16)
Length of Visible Light 16h 57m
Length of Day
15h 38m
First Quarter, 56% of the Moon is Illuminated
Jul 16
First Quarter
Jul 22
Full
Jul 29
Last Quarter
Aug 6
New
Aug 14
First Quarter

Hourly Weather History & Observations

Time (CDT) Temp. Dew Point Humidity Pressure Visibility Wind Dir Wind Speed Gust Speed Precip Events Conditions
12:15 AM 62.6 °F 60.8 °F 94% 29.94 in 10.0 mi SSW 9.2 mph - N/A   Clear
12:35 AM 62.6 °F 62.6 °F 100% 29.93 in 10.0 mi SSW 6.9 mph - N/A   Clear
12:55 AM 62.6 °F 62.6 °F 100% 29.93 in 10.0 mi SSW 5.8 mph - N/A   Scattered Clouds
1:15 AM 62.6 °F 62.6 °F 100% 29.94 in 10.0 mi Calm Calm - N/A   Partly Cloudy
1:35 AM 62.6 °F 62.6 °F 100% 29.94 in 10.0 mi SSE 5.8 mph - N/A   Clear
1:55 AM 62.6 °F 62.6 °F 100% 29.95 in 10.0 mi SE 5.8 mph - N/A   Clear
2:15 AM 62.6 °F 62.6 °F 100% 30.01 in 10.0 mi West 10.4 mph 21.9 mph N/A Thunderstorm Mostly Cloudy
2:35 AM 62.6 °F 59.0 °F 88% 30.03 in 2.5 mi North 19.6 mph 41.4 mph 0.19 in Rain , Thunderstorm Heavy Thunderstorms and Rain
2:55 AM 60.8 °F 60.8 °F 100% 30.02 in 10.0 mi East 9.2 mph - 0.29 in Rain , Thunderstorm Light Rain
3:15 AM 59.0 °F 59.0 °F 100% 30.04 in 10.0 mi SE 10.4 mph - N/A Thunderstorm Thunderstorm
3:35 AM 60.8 °F 60.8 °F 100% 30.02 in 10.0 mi ESE 4.6 mph - N/A   Overcast
3:55 AM 59.0 °F 59.0 °F 100% 30.02 in 10.0 mi WNW 5.8 mph - N/A   Partly Cloudy
4:15 AM 59.0 °F 59.0 °F 100% 30.02 in 10.0 mi WNW 4.6 mph - N/A   Partly Cloudy
4:35 AM 59.0 °F 59.0 °F 100% 30.02 in 10.0 mi NNW 8.1 mph - N/A   Partly Cloudy
4:55 AM 62.6 °F 59.0 °F 88% 30.02 in 10.0 mi NW 5.8 mph - N/A   Scattered Clouds
5:15 AM 60.8 °F 60.8 °F 100% 30.03 in 10.0 mi NW 5.8 mph - N/A   Partly Cloudy
5:35 AM 59.0 °F 59.0 °F 100% 30.04 in 10.0 mi WNW 3.5 mph - N/A   Clear
5:55 AM 60.8 °F 60.8 °F 100% 30.04 in 10.0 mi NW 3.5 mph - N/A   Partly Cloudy
6:15 AM 60.8 °F 60.8 °F 100% 30.05 in 10.0 mi NNW 3.5 mph - N/A   Clear
6:35 AM 62.6 °F 62.6 °F 100% 30.07 in 10.0 mi NW 5.8 mph - N/A   Clear
6:55 AM 62.6 °F 62.6 °F 100% 30.15 in 10.0 mi WNW 18.4 mph 24.2 mph N/A   Mostly Cloudy
7:15 AM 59.0 °F 59.0 °F 100% 30.12 in 8.0 mi NNW 17.3 mph 31.1 mph N/A Thunderstorm Mostly Cloudy
7:35 AM 62.6 °F 60.8 °F 94% 30.05 in 10.0 mi NNE 11.5 mph - N/A Thunderstorm Clear
7:55 AM 62.6 °F 62.6 °F 100% 30.04 in 10.0 mi East 6.9 mph - N/A Thunderstorm Clear
8:15 AM 64.4 °F 64.4 °F 100% 30.08 in 10.0 mi NNW 16.1 mph 20.7 mph N/A   Clear
8:35 AM 62.6 °F 59.0 °F 88% 30.09 in 10.0 mi North 17.3 mph 24.2 mph N/A   Clear
8:55 AM 60.8 °F 59.0 °F 94% 30.10 in 10.0 mi North 19.6 mph 26.5 mph N/A   Clear
9:15 AM 62.6 °F 57.2 °F 82% 30.10 in 10.0 mi North 21.9 mph 28.8 mph N/A   Clear
9:35 AM 62.6 °F 59.0 °F 88% 30.10 in 10.0 mi North 21.9 mph 26.5 mph N/A   Clear
9:55 AM 64.4 °F 59.0 °F 83% 30.10 in 10.0 mi North 19.6 mph 25.3 mph N/A   Clear
10:15 AM 64.4 °F 59.0 °F 83% 30.11 in 10.0 mi North 12.7 mph 27.6 mph N/A   Clear
10:55 AM 64.4 °F 60.8 °F 88% 30.15 in 10.0 mi North 16.1 mph 21.9 mph N/A   Clear
11:15 AM 64.4 °F 60.8 °F 88% 30.17 in 10.0 mi NNW 17.3 mph 20.7 mph N/A   Partly Cloudy
11:35 AM 64.4 °F 60.8 °F 88% 30.18 in 10.0 mi North 15.0 mph 24.2 mph N/A   Scattered Clouds
11:55 AM 64.4 °F 60.8 °F 88% 30.19 in 10.0 mi NNW 16.1 mph 24.2 mph N/A   Scattered Clouds
12:15 PM 64.4 °F 60.8 °F 88% 30.16 in 10.0 mi NE 10.4 mph 17.3 mph N/A   Partly Cloudy
12:35 PM 64.4 °F 60.8 °F 88% 30.17 in 10.0 mi North 10.4 mph - N/A   Clear
12:55 PM 64.4 °F 60.8 °F 88% 30.21 in 10.0 mi NNW 18.4 mph - N/A   Partly Cloudy
1:15 PM 64.4 °F 59.0 °F 83% 30.20 in 10.0 mi North 11.5 mph - N/A   Partly Cloudy
1:35 PM 66.2 °F 60.8 °F 83% 30.22 in 10.0 mi North 12.7 mph - N/A   Clear
1:55 PM 64.4 °F 60.8 °F 88% 30.25 in 10.0 mi NNW 16.1 mph 25.3 mph N/A   Mostly Cloudy
2:15 PM 64.4 °F 59.0 °F 83% 30.18 in 10.0 mi NE 10.4 mph 19.6 mph N/A   Mostly Cloudy
2:35 PM 64.4 °F 59.0 °F 83% 30.22 in 10.0 mi NNW 11.5 mph 17.3 mph N/A   Mostly Cloudy
3:55 PM 60.8 °F 60.8 °F 100% 30.22 in 10.0 mi NE 6.9 mph - 0.01 in Rain Light Rain
4:15 PM 62.6 °F 62.6 °F 100% 30.24 in 10.0 mi North 10.4 mph - N/A   Partly Cloudy
4:35 PM 64.4 °F 64.4 °F 100% 30.23 in 10.0 mi North 9.2 mph - N/A Rain , Thunderstorm Light Rain
4:55 PM 64.4 °F 64.4 °F 100% 30.22 in 10.0 mi NNE 12.7 mph - N/A   Scattered Clouds
5:15 PM 64.4 °F 62.6 °F 94% 30.22 in 10.0 mi ENE 3.5 mph - N/A   Scattered Clouds
5:35 PM 62.6 °F 62.6 °F 100% 30.22 in 10.0 mi NE 4.6 mph - 0.01 in Rain Light Rain
5:55 PM 62.6 °F 62.6 °F 100% 30.22 in 10.0 mi ENE 4.6 mph - 0.02 in Thunderstorm Partly Cloudy
6:15 PM 64.4 °F 64.4 °F 100% 30.23 in 10.0 mi NE 5.8 mph - N/A   Clear
6:35 PM 66.2 °F 64.4 °F 94% 30.23 in 10.0 mi North 6.9 mph - N/A   Partly Cloudy
6:55 PM 66.2 °F 64.4 °F 94% 30.23 in 10.0 mi NE 4.6 mph - N/A   Mostly Cloudy
7:15 PM 66.2 °F 64.4 °F 94% 30.23 in 10.0 mi ENE 4.6 mph - N/A   Mostly Cloudy
7:35 PM 66.2 °F 64.4 °F 94% 30.22 in 10.0 mi East 9.2 mph - N/A   Scattered Clouds
7:55 PM 66.2 °F 62.6 °F 88% 30.23 in 10.0 mi ENE 4.6 mph - N/A   Scattered Clouds
8:15 PM 66.2 °F 64.4 °F 94% 30.24 in 10.0 mi ESE 4.6 mph - N/A Thunderstorm Partly Cloudy
8:35 PM 66.2 °F 64.4 °F 94% 30.24 in 10.0 mi SE 5.8 mph - N/A   Clear
8:55 PM 64.4 °F 64.4 °F 100% 30.24 in 10.0 mi SE 3.5 mph - N/A   Partly Cloudy
9:15 PM 64.4 °F 64.4 °F 100% 30.23 in 10.0 mi Calm Calm - N/A   Scattered Clouds
9:35 PM 62.6 °F 62.6 °F 100% 30.24 in 10.0 mi Calm Calm - N/A   Partly Cloudy
9:55 PM 62.6 °F 62.6 °F 100% 30.24 in 10.0 mi NNE 3.5 mph - N/A   Clear
10:15 PM 60.8 °F 60.8 °F 100% 30.25 in 10.0 mi North 3.5 mph - N/A   Mostly Cloudy
10:35 PM 62.6 °F 62.6 °F 100% 30.25 in 10.0 mi NNE 3.5 mph - N/A   Overcast
10:55 PM 62.6 °F 62.6 °F 100% 30.25 in 10.0 mi NNE 3.5 mph - N/A   Overcast
11:15 PM 62.6 °F 62.6 °F 100% 30.25 in 10.0 mi NE 5.8 mph - N/A   Mostly Cloudy
11:35 PM 62.6 °F 59.0 °F 88% 30.24 in 10.0 mi NE 6.9 mph - N/A   Mostly Cloudy
11:55 PM 62.6 °F 59.0 °F 88% 30.25 in 10.0 mi NE 6.9 mph - N/A   Mostly Cloudy